FW6569 Weather Reports


time (UTC)temp
F
wind
direction
speed
knots
gust
knots
rain 1hr
in
rain 24hr
in
rain mn
in
humidity
%
barometer
mb
20260906060025 73 12 4.3 6.1 0.00 0.00 0.00 96 1014.9
20260906055025 73 16 5.2 6.1 0.00 0.00 0.00 96 1014.9
20260906054025 73 3 3.5 5.2 0.00 0.00 0.00 96 1015.0
20260906053045 73 27 3.5 5.2 0.00 0.00 0.00 95 1014.9
20260906052045 73 21 4.3 6.1 0.00 0.00 0.00 95 1014.9
20260906051025 73 14 5.2 7.0 0.00 0.00 0.00 95 1014.7
20260906050025 73 12 3.5 6.1 0.00 0.00 0.00 95 1014.7
20260906045025 74 14 4.3 5.2 0.00 0.00 0.00 94 1014.5
20260906044025 74 14 3.5 5.2 0.00 0.00 0.00 94 1014.4
20260906043025 74 4 3.5 5.2 0.00 0.00 0.00 93 1014.3
20260906042025 74 11 3.5 5.2 0.00 0.00 0.00 92 1014.2
20260906041106 75 12 3.5 6.1 0.00 0.00 0.00 91 1014.1
20260906040026 75 21 4.3 6.1 0.00 0.00 0.00 91 1014.1
20260906035025 75 22 5.2 8.7 0.00 0.00 0.00 91 1014.0
20260906034025 75 22 5.2 7.0 0.00 0.00 0.00 91 1014.0
20260906033026 75 28 4.3 6.1 0.00 0.00 0.00 91 1014.0
20260906032025 76 33 4.3 6.1 0.00 0.00 0.00 91 1014.0
20260906031046 76 25 3.5 6.1 0.00 0.00 0.00 91 1014.2
20260906030025 76 18 4.3 6.1 0.00 0.00 0.00 90 1014.3
20260906025046 76 21 3.5 5.2 0.00 0.00 0.00 89 1014.2
20260906024026 77 21 3.5 5.2 0.00 0.00 0.00 88 1014.2
20260906023025 77 39 3.5 5.2 0.00 0.00 0.00 87 1014.2
20260906022025 77 5 2.6 2.6 0.00 0.00 0.00 86 1014.2
20260906021025 77 20 1.7 5.2 0.00 0.00 0.00 85 1014.1
20260906020025 77 24 2.6 4.3 0.00 0.00 0.00 83 1014.0
20260906015026 78 25 0.0 1.7 0.00 0.00 0.00 82 1013.9
20260906014026 78 13 3.5 6.1 0.00 0.00 0.00 81 1013.7
20260906013026 78 25 3.5 5.2 0.00 0.00 0.00 81 1013.6
20260906012026 79 19 5.2 7.0 0.00 0.00 0.00 81 1013.4
20260906011126 79 20 5.2 7.0 0.00 0.00 0.00 81 1013.3
20260906010106 79 13 4.3 6.1 0.00 0.00 0.00 83 1013.3
20260906005025 80 25 3.5 5.2 0.00 0.00 0.00 83 1013.1
20260906004025 80 21 6.1 7.8 0.00 0.00 0.00 81 1012.9
20260906003026 81 14 7.0 8.7 0.00 0.00 0.00 82 1012.7
20260906002026 81 9 3.5 9.6 0.00 0.00 0.00 87 1012.6
20260906001025 82 0.0 0.0 0.00 0.00 0.00 85 1012.3
20260906000026 83 0.0 0.0 0.00 0.00 0.00 84 1012.3
20260905235026 84 230 0.9 1.7 0.00 0.00 0.00 80 1012.6
20260905234025 85 0.0 0.0 0.00 0.00 0.00 79 1012.7
20260905233026 85 0.0 0.0 0.00 0.00 0.00 78 1012.5
20260905232025 86 0.0 0.0 0.00 0.00 0.00 77 1012.8
20260905231026 86 0.0 0.0 0.00 0.00 0.00 76 1012.8
20260905230026 87 0.0 0.0 0.00 0.00 0.00 75 1013.0
20260905225045 87 0.0 0.0 0.00 0.00 0.00 74 1013.0
20260905224026 87 0.0 0.0 0.00 0.00 0.00 75 1012.8
20260905223026 87 0.0 0.0 0.00 0.00 0.00 72 1012.4
20260905222026 88 0.0 0.0 0.00 0.00 0.00 71 1012.5
20260905221026 89 0.0 0.0 0.00 0.00 0.00 68 1012.5
20260905220026 91 0.0 0.0 0.00 0.00 0.00 63 1012.5
20260905215026 93 297 0.9 2.6 0.00 0.00 0.00 58 1012.4
20260905214026 94 278 1.7 3.5 0.00 0.00 0.00 55 1012.4
20260905213026 95 328 0.9 1.7 0.00 0.00 0.00 55 1012.5
20260905212026 96 347 2.6 5.2 0.00 0.00 0.00 53 1012.6
20260905211525 95 268 0.9 2.6 0.00 0.00 0.00 54 1012.7
20260905210526 96 345 1.7 3.5 0.00 0.00 0.00 53 1012.8
20260905205526 96 9 0.9 2.6 0.00 0.00 0.00 53 1013.0
20260905204527 95 247 1.7 4.3 0.00 0.00 0.00 52 1013.1
20260905203526 95 332 2.6 4.3 0.00 0.00 0.00 52 1013.1
20260905202526 95 229 3.5 6.1 0.00 0.00 0.00 56 1013.2
20260905201526 94 211 4.3 7.0 0.00 0.00 0.00 53 1013.4
20260905200526 94 217 5.2 7.0 0.00 0.00 0.00 53 1013.5
20260905195546 94 210 3.5 7.0 0.00 0.00 0.00 52 1013.6
20260905194526 94 235 4.3 7.8 0.00 0.00 0.00 54 1013.6
20260905193526 93 210 2.6 5.2 0.00 0.00 0.00 53 1013.8
20260905192526 93 220 4.3 6.1 0.00 0.00 0.00 55 1013.9
20260905191526 92 205 3.5 5.2 0.00 0.00 0.00 55 1014.0
20260905190526 91 217 5.2 8.7 0.00 0.00 0.00 58 1014.1
20260905185526 91 220 5.2 7.0 0.00 0.00 0.00 57 1014.2
20260905184526 91 207 4.3 6.1 0.00 0.00 0.00 58 1014.4
20260905183526 90 212 6.1 10.4 0.00 0.00 0.00 58 1014.5
20260905182526 90 215 4.3 7.0 0.00 0.00 0.00 58 1014.6
20260905181546 90 227 4.3 8.7 0.00 0.00 0.00 58 1014.5
20260905180526 89 205 6.1 8.7 0.00 0.00 0.00 59 1014.6
20260905175526 89 212 5.2 8.7 0.00 0.00 0.00 59 1014.6
20260905174526 89 205 6.1 8.7 0.00 0.00 0.00 58 1014.7
20260905173526 89 190 5.2 7.8 0.00 0.00 0.00 59 1014.8
20260905172547 89 203 5.2 8.7 0.00 0.00 0.00 58 1015.0
20260905171526 88 205 4.3 7.0 0.00 0.00 0.00 58 1015.2
20260905170526 89 218 3.5 6.1 0.00 0.00 0.00 57 1015.4
20260905165526 88 207 2.6 4.3 0.00 0.00 0.00 58 1015.7
20260905164526 87 167 4.3 7.0 0.00 0.00 0.00 58 1015.7
20260905163607 87 239 2.6 7.0 0.00 0.00 0.00 58 1015.9
20260905162526 85 217 5.2 7.8 0.00 0.00 0.00 60 1015.8
20260905161526 86 188 5.2 7.0 0.00 0.00 0.00 60 1015.9
20260905160528 86 216 4.3 7.0 0.00 0.00 0.00 60 1015.8
20260905155526 86 186 3.5 5.2 0.00 0.00 0.00 59 1015.8
20260905154607 86 180 4.3 7.0 0.00 0.00 0.00 59 1015.7
20260905153526 86 195 3.5 5.2 0.00 0.00 0.00 58 1015.8
20260905152526 84 174 1.7 4.3 0.00 0.00 0.00 60 1015.7
20260905151527 84 194 5.2 7.8 0.00 0.00 0.00 61 1015.7
20260905150526 84 167 3.5 5.2 0.00 0.00 0.00 60 1015.7
20260905145526 83 126 3.5 5.2 0.00 0.00 0.00 61 1015.7
20260905144547 82 140 3.5 7.8 0.00 0.00 0.00 62 1015.7
20260905143527 81 141 5.2 7.8 0.00 0.00 0.00 63 1015.7
20260905142708 81 119 4.3 8.7 0.00 0.00 0.00 63 1015.8
20260905141527 80 99 5.2 7.8 0.00 0.00 0.00 67 1015.9
20260905140526 79 118 3.5 7.0 0.00 0.00 0.00 69 1016.1
20260905135526 78 115 6.1 8.7 0.00 0.00 0.00 70 1016.1
20260905134526 78 87 4.3 7.8 0.00 0.00 0.00 70 1016.4
20260905133547 77 125 4.3 7.0 0.00 0.00 0.00 73 1016.6
20260905132527 76 100 4.3 7.0 0.00 0.00 0.00 74 1016.8
20260905131547 75 103 4.3 7.8 0.00 0.00 0.00 77 1016.6
20260905130527 75 111 5.2 7.8 0.00 0.00 0.00 79 1016.7
20260905125527 73 90 4.3 7.0 0.00 0.00 0.00 82 1016.8
20260905124527 72 109 3.5 6.1 0.00 0.00 0.00 83 1016.7
20260905123527 72 99 5.2 7.0 0.00 0.00 0.00 83 1016.9
20260905122527 72 58 3.5 5.2 0.00 0.00 0.00 84 1017.0
20260905121547 71 77 5.2 7.8 0.00 0.00 0.00 85 1016.8
20260905120527 71 69 4.3 6.1 0.00 0.00 0.00 85 1016.7
20260905115527 71 90 5.2 7.8 0.00 0.00 0.00 84 1016.8
20260905114547 72 76 5.2 7.8 0.00 0.00 0.00 83 1016.7
20260905113527 72 73 5.2 7.8 0.00 0.00 0.00 83 1016.7
20260905112547 72 58 3.5 5.2 0.00 0.00 0.00 83 1016.7
20260905111527 72 32 7.8 10.4 0.00 0.00 0.00 83 1016.6
20260905110547 73 14 6.1 8.7 0.00 0.00 0.00 84 1016.4
20260905105547 73 21 11.3 16.5 0.00 0.00 0.00 84 1016.2
20260905104547 73 22 14.8 23.5 0.00 0.00 0.00 92 1015.8
20260905103547 72 11 4.3 14.8 0.00 0.00 0.00 99 1015.1
20260905102527 71 0.0 0.0 0.00 0.00 0.00 99 1014.8
20260905101527 71 0.0 0.0 0.00 0.00 0.00 99 1014.8
20260905100547 71 0.0 0.0 0.00 0.00 0.00 99 1014.9
20260905095528 71 0.0 0.0 0.00 0.00 0.00 99 1014.9
20260905094527 71 0.0 0.0 0.00 0.00 0.00 99 1014.9
20260905093527 72 0.0 0.0 0.00 0.00 0.00 99 1014.7
20260905092527 72 0.0 0.0 0.00 0.00 0.00 99 1014.7
20260905091607 72 0.0 0.0 0.00 0.00 0.00 99 1014.5
20260905090527 72 0.0 0.0 0.00 0.00 0.00 99 1014.5
20260905085527 72 0.0 0.0 0.00 0.00 0.00 99 1014.5
20260905084527 72 0.0 0.0 0.00 0.00 0.00 99 1014.6
20260905083527 72 0.0 0.0 0.00 0.00 0.00 99 1014.5
20260905082527 72 0.0 0.0 0.00 0.00 0.00 99 1014.5
20260905081548 72 0.0 0.0 0.00 0.00 0.00 98 1014.3
20260905080527 72 0.0 0.0 0.00 0.00 0.00 98 1014.2
20260905075528 72 0.0 0.0 0.00 0.00 0.00 98 1014.0
20260905074527 72 0.0 0.0 0.00 0.00 0.00 98 1013.9
20260905073527 72 0.0 0.0 0.00 0.00 0.00 98 1013.9
20260905072527 72 0.0 0.0 0.00 0.00 0.00 98 1013.9
20260905071527 72 0.0 0.0 0.00 0.00 0.00 98 1014.0
20260905070527 72 0.0 0.0 0.00 0.00 0.00 98 1014.2
20260905065548 72 0.0 0.0 0.00 0.00 0.00 98 1014.4
20260905064527 72 0.0 0.0 0.00 0.00 0.00 98 1014.5
20260905063528 72 0.0 0.0 0.00 0.00 0.00 98 1014.6
20260905062527 72 0.0 0.0 0.00 0.00 0.00 98 1014.7
20260905061528 72 0.0 0.0 0.00 0.00 0.00 98 1014.8
20260905060548 72 0.0 0.0 0.00 0.00 0.00 98 1014.9